Regional Weather Roundup
Issued by NWS

Home | Current Version | Previous Version | Graphics & Text | Print | Product List | Glossary Off
Versions: 1 2 3 4 5 6 7 8 9 10 11 12 13 14 15 16 17 18 19 20 21 22 23 24 25 26 27 28 29 30 31 32 33 34 35 36 37 38 39 40 41 42 43 44 45 46 47 48 49 50

000
ASUS43 KMKX 272121
RWRWI

WISCONSIN REGIONAL WEATHER ROUNDUP
NATIONAL WEATHER SERVICE MILWAUKEE/SULLIVAN WI
400 PM CDT SAT MAY 27 2017

NOTE: "FAIR" INDICATES FEW OR NO CLOUDS BELOW 12,000 FEET WITH NO
SIGNIFICANT WEATHER AND/OR OBSTRUCTIONS TO VISIBILITY.

WIZ001-002-006>008-014>016-023>028-272200-
NORTHWEST WISCONSIN

CITY           SKY/WX    TMP DP  RH WIND       PRES   REMARKS
SUPERIOR ARPT  NOT AVBL
ASHLAND        CLOUDY    72  45  37 SW13      29.85S
HAYWARD        CLOUDY    70  44  39 SW8       29.87F
SIREN          CLOUDY    71  42  34 W3        29.87F
CUMBERLAND     PTSUNNY   68  41  37 W9        29.87F
RICE LAKE      PTSUNNY   69  42  37 W6        29.88F
CHETEK         PTSUNNY   69  48  46 NW5       29.87S
LADYSMITH      CLOUDY    68  48  49 W7        29.88F
EAU CLAIRE     CLOUDY    68  46  45 W6        29.86F
MENOMONIE      CLOUDY    68  47  47 SW8       29.87F
NEW RICHMOND   CLOUDY    70  42  37 W6        29.88S
OSCEOLA        CLOUDY    71  41  34 W6        29.90S
$$

WIZ003>005-009-010-017-018-272200-
NORTH CENTRAL WISCONSIN

CITY           SKY/WX    TMP DP  RH WIND       PRES   REMARKS
MANITOWISH WTR CLOUDY    69  44  41 W8        29.86R
ARBOR VITAE    MOSUNNY   72  48  42 W9G17     29.86S
WOODRUFF       MOSUNNY   72  48  42 W9G17     29.86S
RHINELANDER    MOSUNNY   73  47  39 W16G22    29.86S
EAGLE RIVER    PTSUNNY   72  42  34 W8G17     29.85R
LAND O LAKES   PTSUNNY   73  43  33 W12G17    29.86R
PHILLIPS       CLOUDY    67  47  49 W5        29.87F
TOMAHAWK       PTSUNNY   69  47  44 W12G20    29.88S
MEDFORD        PTSUNNY   66  48  51 W10       29.89F
MERRILL        CLOUDY    70  49  48 W14       29.87S
$$

WIZ029-030-035-036-043>047-272200-
CENTRAL WISCONSIN

CITY           SKY/WX    TMP DP  RH WIND       PRES   REMARKS
WAUSAU         CLOUDY    72  50  45 NW13      29.85F
MOSINEE        MOSUNNY   73  52  46 W8G17     29.88F
MARSHFIELD     CLOUDY    71  49  45 NW15      29.86F
STEVENS POINT  CLOUDY    72  49  44 W9        29.86F
WAUPACA        CLOUDY    80  47  31 W9        29.84F
WAUTOMA        NOT AVBL
WISC RAPIDS    MOSUNNY   75  51  43 W10       29.86F
CAMP DOUGLAS   PTSUNNY   73  54  51 W8        29.85F
$$

WIZ011>013-019>022-031-037>040-048>050-272200-
NORTHEAST WISCONSIN

CITY           SKY/WX    TMP DP  RH WIND       PRES   REMARKS
ANTIGO         PTSUNNY   71  51  49 W12G22    29.87S
SHAWANO        CLOUDY    78  49  36 W8G16     29.84S
OCONTO         CLOUDY    74  56  52 S8        29.84R
STURGEON BAY   MOSUNNY   69  52  54 S16       29.86F
GREEN BAY      PTSUNNY   75  59  57 S9        29.85F
MANITOWOC      CLOUDY    67  51  56 S10       29.87F
APPLETON       PTSUNNY   73  54  49 SW10      29.85S
CLINTONVILLE   CLOUDY    77  46  33 W9        29.84S
OSHKOSH        CLOUDY    75  58  55 SW10G17   29.85F
$$

WIZ032>034-041-042-053>061-272200-
SOUTHWEST WISCONSIN

CITY           SKY/WX    TMP DP  RH WIND       PRES   REMARKS
LA CROSSE      CLOUDY    74  52  46 NW12      29.85F
SPARTA         CLOUDY    73  51  46 W6        29.86F
VIROQUA        CLOUDY    71  50  47 SW7       29.86F
BOSCOBEL       CLOUDY    76  57  51 CALM      29.83F
PRAIRIE DU CHI CLOUDY    73  57  56 CALM      29.83F
PLATTEVILLE    SUNNY     72  63  73 CALM      29.85F
$$

WIZ056-057-062-063-064-067-068-272200-
SOUTH CENTRAL WISCONSIN

CITY           SKY/WX    TMP DP  RH WIND       PRES   REMARKS
REEDSBURG      CLOUDY    72  59  64 W6        29.85S
BARABOO/DELLS  CLOUDY    72  56  57 NW3       29.86F
LONE ROCK      CLOUDY    74  57  55 NW5       29.85F
MINERAL POINT  CLOUDY    73  59  60 NW6       29.86F
MADISON        CLOUDY    74  59  59 VRB7      29.85F
MIDDLETON      CLOUDY    74  61  63 W6        29.86F
WATERTOWN      CLOUDY    73  59  61 SW7       29.85F
MONROE         CLOUDY    73  59  60 W5        29.86F
JANESVILLE     PTSUNNY   77  61  57 N6        29.85F
$$

WIZ051-052-058>065-066-070>072-272200-
SOUTHEAST WISCONSIN

CITY           SKY/WX    TMP DP  RH WIND       PRES   REMARKS
MILWAUKEE      CLOUDY    69  54  58 SE14      29.87F
WAUKESHA       MOSUNNY   72  57  60 NW5       29.87F
MILWAUKEE/TIMM MOSUNNY   72  50  46 E9        29.87F
RACINE         SUNNY     67  51  56 SE10      29.88F
KENOSHA        SUNNY     70  55  59 E9        29.87F
FOND DU LAC    CLOUDY    74  56  53 W9        29.86F
SHEBOYGAN      MOSUNNY   70  56  61 S9        29.87F
WEST BEND      CLOUDY    72  55  56 W5        29.86F
JUNEAU         CLOUDY    72  58  61 S5        29.87F
$$

LSZ147-162-272200-
LAKE SUPERIOR

STATION/POSITION TIME  TEMP    WIND        PRES    WAVE
                       AIR SEA DIR/SP/G            HT/PER
                 (UTC) (F)     (DEG/KT/KT) (MB)    (FT/S)
W MID LAKE BUOY  2050   46 38  230/  8/ 10 1010.2F   0
DEVILS ISLAND    2100   66     220/ 13/ 16 1009.7F
SAXON HARBOR     2040   67      20/  3/  4 1010.5S
$$

LMZ867-665-643>646-272200-
LAKE MICHIGAN

STATION/POSITION TIME  TEMP    WIND        PRES    WAVE
                       AIR SEA DIR/SP/G            HT/PER
                 (UTC) (F)     (DEG/KT/KT) (MB)    (FT/S)
CHAMBERS ISLAND  2040   73     190/  4/ 13 1010.2S
N MID LAKE BUOY  2050   49 43  180/  8/ 10 1012.2F   0
NORTHPORT PIER   2040   66     160/  9/ 17 1010.8F
KEWAUNEE LAKESHO 2054   54     180/ 10/ 12 1011.3F
SHEBOYGAN LAKESH 2100   56     180/ 15/ 15 1011.4F
PORT WASHINGTON  2040   63     190/  4/  6 1012.9F
ATWATER BUOY     2009   54     170/  6/  8 1012.4F
MILWAUKEE LAKESH 2100   57     100/  2/  4   N/A
S MID LAKE BUOY  2050   53 52  360/  4/  4 1012.7F   0
KENOSHA   LAKESH 2100   60     120/  5/  8 1011.5
$$

TC  - TEMPERATURE IN CELSIUS
VSB - VISIBILITY IN STATUTE MILES
WCI - WIND CHILL INDEX
HX  - HEAT INDEX




USA.gov is the U.S. government's official web portal to all federal, state and local government web resources and services.